Regional Weather Roundup
Issued by NWS

Home | Current Version | Previous Version | Graphics & Text | Print | Product List | Glossary On
Versions: 1 2 3 4 5 6 7 8 9 10 11 12 13 14 15 16 17 18 19 20 21 22 23 24 25 26 27 28 29 30 31 32 33 34 35 36 37 38 39 40 41 42 43 44 45 46 47 48 49 50
000
ASUS45 KCYS 301610
RWRWY

WYOMING REGIONAL WEATHER ROUNDUP
NATIONAL WEATHER SERVICE CHEYENNE WY
1000 AM MDT WED JUL 30 2014

NOTE:  "FAIR" INDICATES FEW OR NO CLOUDS BELOW 12,000 FEET
WITH NO SIGNIFICANT WEATHER AND/OR OBSTRUCTIONS TO VISIBILITY.

WYZ001-301700-
YELLOWSTONE NATIONAL PARK

CITY           SKY/WX    TMP DP  RH WIND       PRES   REMARKS
LK YELLOWSTONE   N/A     60  42  51 SE5       30.49S
W YELLOWSTONE  NOT AVBL

$$
WYZ002>013-054>058-071-098>099-301700-
NORTHERN WYOMING

CITY           SKY/WX    TMP DP  RH WIND       PRES   REMARKS
JACKSON        NOT AVBL
CODY           NOT AVBL
GREYBULL       MOSUNNY   69  57  65 VRB3      30.29S
WORLAND        MOSUNNY   66  57  72 VRB3      30.30S
SHERIDAN       MOSUNNY   74  48  39 E3        30.28S
BUFFALO        MOSUNNY   74  42  31 VRB3      30.33S
GILLETTE       MOSUNNY   74  50  42 W3        30.28R
HULETT         FAIR      68  54  60 MISG      30.29
NEWCASTLE      FAIR      70  52  52 W5        30.29

$$
WYZ014>020-022>026-101>103-301700-
CENTRAL WYOMING

CITY           SKY/WX    TMP DP  RH WIND       PRES   REMARKS
BIG PINEY      LGT RAIN  56  52  86 N6        30.41S
PINEDALE       CLOUDY    55  46  71 NW6       30.41F
DUBOIS         FAIR      55  45  67 CALM      30.44F
LANDER         PTSUNNY   61  55  81 NW3       30.36S
RIVERTON       MOSUNNY   64  54  69 CALM      30.37S
CASPER         PTSUNNY   62  53  72 CALM      30.35S
DOUGLAS        CLOUDY    63  55  75 CALM      30.33F

$$
WYZ021-027>030-104>119-301700-
SOUTHERN WYOMING

CITY           SKY/WX    TMP DP  RH WIND       PRES   REMARKS
EVANSTON       CLOUDY    55  53  93 E10       30.37S
KEMMERER       RAIN      52  50  93 NE13      30.45R
FORT BRIDGER   CLOUDY    55  55 100 E9        30.41R
ROCK SPRINGS   CLOUDY    59  51  75 E16       30.37S
DIXON          CLOUDY    62  56  80 E3        30.34R
RAWLINS        CLOUDY    58  53  84 NE15      30.38S
SARATOGA       DRIZZLE   59  52  77 CALM      30.38R
LARAMIE        LGT RAIN  55  51  86 CALM      30.40S
CHEYENNE       LGT RAIN  58  54  86 CALM      30.37S
TORRINGTON     CLOUDY    67  56  67 NW5       30.28S
PINE BLUFFS    CLOUDY    63  59  88 NE7       30.33S

$$


USA.gov is the U.S. government's official web portal to all federal, state and local government web resources and services.